Location: Melque
(41.0517°N, 4.4694°W)
Time: 20:32:26
(UTC+00:00)

Cosmos 1782 - Pass Details

Date: 11 December 2025
Orbit: 464 x 476 km, 82.5° (Epoch: 12 January)

Event Time Altitude Azimuth Distance (km) Brightness Sun altitude
Rises 17:17:37 0° 195° (SSW) 2,521 6.9 -5.5°
Reaches altitude 10° 17:19:44 10° 199° (SSW) 1,646 6.0 -5.9°
Maximum altitude 17:23:16 58° 279° (W) 560 3.2 -6.5°
Drops below altitude 10° 17:26:51 10° 360° (N) 1,653 5.0 -7.1°
Sets 17:28:58 0° 4° (N) 2,533 5.9 -7.4°
